Regional Weather Roundup
Issued by NWS Cleveland, OH

Home | Current Version | Previous Version | Text Only | Print | Product List | Glossary Off
Versions: 1 2 3 4 5 6 7 8 9 10 11 12 13 14 15 16 17 18 19 20 21 22 23 24 25 26 27 28 29 30 31 32 33 34 35 36 37 38 39 40 41 42 43 44 45 46 47 48 49 50

000
ASUS41 KCLE 201210
RWRCLE
OHIO REGIONAL WEATHER ROUNDUP
NATIONAL WEATHER SERVICE WILMINGTON, OH
700 AM EST MON FEB 20 2017

NOTE: "FAIR" INDICATES FEW OR NO CLOUDS BELOW 12,000 FEET WITH NO
SIGNIFICANT WEATHER AND/OR OBSTRUCTIONS TO VISIBILITY.

OHZ001>008-015>018-024>027-034-035-043-044-201300-
   NORTHWEST OHIO

CITY           SKY/WX    TMP DP  RH WIND       PRES   REMARKS
DEFIANCE       FAIR      35  31  85 CALM      30.23R
FINDLAY        FAIR      35  30  82 CALM      30.21R
TOLEDO EXPRESS FAIR      37  35  92 CALM      30.23R
TOLEDO EXEC    FAIR      37  34  89 NE5       30.24R
LIMA           FOG       36  36 100 S3        30.21R VSB 1/2
$$

OHZ009>014-019>023-028>033-038-089-201300-
   NORTHEAST OHIO

CITY           SKY/WX    TMP DP  RH WIND       PRES   REMARKS
CLE-HOPKINS    MOCLDY    37  30  75 CALM      30.27R
CLE-LAKEFRONT  FAIR      35  31  85 NE5       30.25R
CUY CO. ARPT   MOCLDY    34  32  93 CALM      30.24
LORAIN-ELYRIA  FAIR      31  27  85 CALM      30.24R
ASHTABULA      FAIR      30  29  96 CALM      30.26R
AKRON-CANTON   FOG       34  32  92 NE5       30.22R VSB 1/2 WCI  30
WOOSTER        FAIR      30  29  96 CALM      30.23R FOG
MANSFIELD      FAIR      37  37 100 CALM      30.22R
YOUNGSTOWN     MOCLDY    31  29  92 NE6       30.23R WCI  25
$$

OHZ042-051>053-060>062-070>072-077>081-201300-
  SOUTHWEST OHIO

CITY           SKY/WX    TMP DP  RH WIND       PRES   REMARKS
CINC-COVINGTON FOG       38  38 100 E3        30.22R VSB 1/2
CINC-LUNKEN    FOG       40  40 100 CALM      30.25S VSB 1/4
HAMILTON       FOG       40  40 100 CALM      30.24R VSB<1/4
DAYTON         FOG       36  35  96 CALM      30.23R VSB 1/16
WRIGHT-PAT AFB FOG       37  37 100 CALM      30.23R VSB 1/8
DAYTON GENERAL FOG       37  37 100 S5        30.22R VSB<1/4
WILMINGTON     FOG       34  34 100 CALM      30.22R VSB<1/4
$$

OHZ036-037-039>041-045>050-054>059-063>069-073>076-082>088-201300-
  CENTRAL AND SOUTHEAST OHIO

CITY           SKY/WX    TMP DP  RH WIND       PRES   REMARKS
COLUMBUS       FOG       39  38  96 CALM      30.24R VSB 1/8
OSU AIRPORT    FOG       36  36 100 CALM      30.23R VSB<1/4
BOLTON FIELD   CLOUDY    35  35 100 CALM      30.24R VSB 1/4
RICKENBACK AFB FOG       35  35 100 CALM      30.24R VSB 1/4
NEWARK         FOG       36  35  96 CALM      30.24R VSB 1/4
MARION         FOG       35  33  92 SE5       30.23R VSB 1/4
LANCASTER      FOG       36  34  92 SW3       30.25R VSB 1/4
ZANESVILLE     FOG       37  35  92 CALM      30.24R VSB<1/4
NEW PHILLY     FOG       37  37 100 CALM      30.24R VSB<1/4
$$




USA.gov is the U.S. government's official web portal to all federal, state and local government web resources and services.